CHINASAT 3B (64062 NORAD) Tracking and Keplerian Element Data

This shows tracking and keplerian element data for the satellite.

Feedback or suggestion? Click here.




ElementValue
Catalog64062
NameCHINASAT 3B
Epoch Orbit225
Epoch Day353.08647078
Epoch Year2025
RAAN84.9555
Inclination0.021
Eccentricity0.0004878
Argument of Perigee172.9945
Mean Anonmoly28.4209
Mean Motion1.00273963
Decay Rate-2E-07
L11 64062U 25106A 25353.08647078 -.00000020 00000+0 00000+0 0 9991
L22 64062 0.0210 84.9555 0004878 172.9945 28.4209 1.00273963 2258



Live tracking and technical data element details for CHINASAT 3B (NORAD 64062). CHINASAT 3B can be tracked NOW for your location showing map with azimuth and elevation plus other details from your city location.







IsCatalogInMostPopularTable: catalog: 64062, numindb: 3
Update: records affected: 1



GetName: 64062 CHINASAT 3B

Hit Count: updated at: Mon, 20 Apr 2026 09:12:17 GMT